THOR AGENA B R/B, 741

Orbit data source: Space-Track

THOR AGENA B R/B, 741 is space debris in LEO originally from a launch on Sat, 25 Jan 1964 UTC launched from the Air Force Western Test Range (AFWTR). Debris objects in space refer to the collection of defunct objects orbiting the Earth. Examples of debris include non-operational satellites, rocket bodies, and fragments generated from explosions, collisions, or faulty payload assembly.

Loading next visibility...
Identifier
741, 1964-004B
Orbit
LEO
Last TLE update
9 hours ago
Origin
Manufacturer
LMSC
Mission
Spacecraft
Bus & Motor
AGENA B, Unknown motor
Mass
~705 kg wet, 705 kg dry
Launch date (UTC)
1964-01-25 (61 years ago)
Launch vehicle
Unknown
Launch site
Air Force Western Test Range (AFWTR)
Object type
Payload
Rocket body
Debris
Shape & HBR
Cyl + 1 Nozzle, 6.3 m
Radar Cross Section
8.306 m², Large (>1 m²)

Expand to show TLE details & history

TLE from 9 hours ago
0 THOR AGENA B R/B
1 00741U 64004B   25182.51199223  .00000068  00000-0  12292-3 0  9999
2 00741  81.4906  89.3406 0172846  33.1504 150.7104 13.23807165966663
Epoch: 2025-07-01T12:17Z
TLE epoch observation values (Epoch: 2025-07-01T12:17:16.128Z)
Latitude
-4.89666°
Longitude
165.94779°
Altitude
1,288.111 km
Speed
7.157 km/s
True Right ascension
18h 00m 17s
True Declination
-4° 52' 10"
Sunlit
Object was in full shadow at epoch
Visualization orbit readout
Latitude
-31.82208°
Longitude
170.20431°
Altitude
1,312.536 km
Speed
7.137 km/s
Apparent Right ascension
19h 30m 44s
Apparent Declination
-37° 16' 26"
Sunlit
Object is in full shadow
Visualization observer readout
Local Sidereal Time
09:10:11
Azimuth
90.21° ESE
Elevation
-70.453°
Doppler factor
1
Orbital elements
Apogee altitude
1,297.915 km
Perigee altitude
1,037.068 km
Semi-major axis
7,545.628 km
Eccentricity
0.01728
Inclination
81.4906°
RAAN
89.3406°
Arg. of periapsis
33.1504°
True anomaly
Unknown
Mean anomaly
150.7104°
Eccentric anomaly
Unknown
Mean motion
3.31131 °/min
Orbital period
108.72 mins
BSTAR
0.00012292
Loading maneuver chart data...
Loading SW <> Apogee altitude chart data...
Loading historical data...
Loading historical data...
Loading historical data...
Loading historical data...
Loading historical data...
Loading historical data...
Loading historical data...

THOR AGENA B R/B Visibility forecast

Observer location: undefined°, undefined°

Span
Click to sort rows by Start time (UTC) header in descending order
Start Az.
Max El. time (UTC)
Max El. Az.
Max El.
End time (UTC)
End Az.
11 mins2025-07-02 04:15:55.952Z15.777° NNE2025-07-02 04:21:55.952Z72.945° E22.982°2025-07-02 04:26:55.952Z118.637° SE
13 mins2025-07-02 06:05:55.952Z341° N2025-07-02 06:11:55.952Z261.518° W40.838°2025-07-02 06:18:55.952Z189.512° SSW
11 mins2025-07-02 18:18:55.952Z175.989° S2025-07-02 18:23:55.952Z91.824° ESE43.422°2025-07-02 18:29:55.952Z13.931° NNE
6 mins2025-07-02 20:11:55.952Z268.97° W2025-07-02 20:13:55.952Z289.988° WNW16.65°2025-07-02 20:17:55.952Z330.474° NNW
|